This demonstration page uses our WeatherBlox Daily Observations layout. Learn more.

Left ArrowRight Arrow

39.12711, -84.51439

Hourly Observations for June 20, 2016

Temp ( °F °C ) Dew Point ( °F °C ) Humidity (%) Winds ( mph kmh ) Pressure ( in mb ) Visibility ( mi km ) Precip ( " mm )
12:53 am 00:53 Clear 73 22.8 70 21.1 90 90 N N/A 30.21 1023 10 16 N/A
1:53 am 01:53 Clear 71 21.7 69 20.6 94 94 N N/A 30.21 1023 10 16 N/A
2:53 am 02:53 Clear 69 20.6 69 20.6 100 100 N N/A 30.22 1023 8 13 N/A
3:53 am 03:53 Clear 69 20.6 68 20 96 96 N N/A 30.22 1023 9 14 N/A
4:53 am 04:53 Cloudy 69 20.6 69 20.6 100 100 N N/A 30.22 1023 9 14 N/A
5:53 am 05:53 Mostly Cloudy 68 20 68 20 100 100 N N/A 30.22 1024 9 14 N/A
6:53 am 06:53 Partly Cloudy 68 20 68 20 100 100 N N/A 30.23 1024 10 16 N/A
7:53 am 07:53 Mostly Sunny 72 22.2 70 21.1 94 94 N N/A 30.23 1024 10 16 N/A
8:53 am 08:53 Cloudy 77 25 69 20.6 77 77 SW 7 11 30.24 1024 10 16 N/A
9:53 am 09:53 Mostly Sunny 80 26.7 70 21.1 71 71 SW 9 15 30.22 1024 10 16 N/A
10:53 am 10:53 Sunny 83 28.3 70 21.1 65 65 W 15 24 30.20 1023 10 16 N/A
11:53 am 11:53 Sunny 84 28.9 71 21.7 65 65 W 10 17 30.19 1022 10 16 N/A
12:53 pm 12:53 Sunny 84 28.9 69 20.6 61 61 W 15 24 30.17 1022 10 16 N/A
1:53 pm 13:53 Partly Cloudy 86 30 70 21.1 59 59 WSW 10 17 30.14 1021 10 16 N/A
2:53 pm 14:53 Partly Cloudy 86 30 69 20.6 57 57 SW 10 17 30.13 1020 10 16 N/A
3:53 pm 15:53 Partly Cloudy 86 30 69 20.6 57 57 SW 14 22 30.11 1020 10 16 N/A
4:53 pm 16:53 Mostly Cloudy 88 31.1 69 20.6 54 54 WSW 14 22 30.09 1019 10 16 N/A
5:53 pm 17:53 Mostly Cloudy 87 30.6 69 20.6 55 55 WSW 12 19 30.09 1019 10 16 N/A
6:53 pm 18:53 Mostly Sunny 85 29.4 71 21.7 63 63 SW 12 19 30.06 1018 10 16 N/A
7:53 pm 19:53 Mostly Sunny 83 28.3 70 21.1 65 65 SW 9 15 30.04 1017 10 16 N/A
8:53 pm 20:53 Sunny 82 27.8 70 21.1 67 67 SW 8 13 30.06 1018 10 16 N/A
9:53 pm 21:53 Mostly Clear 81 27.2 70 21.1 69 69 SSW 15 24 30.01 1016 10 16 N/A
10:53 pm 22:53 Partly Cloudy 76 24.4 74 23.3 94 94 SSW 7 11 30.04 1017 9 14 N/A
11:53 pm 23:53 Mostly Cloudy 78 25.6 72 22.2 82 82 SW 7 11 30.02 1017 10 16 N/A

Powered by AerisWeather